This is the latest recevied weather packets stored in our database for station/object HB9GPU-10. If no packets are shown the sender has not sent any weather packets the latest 10 day(s).
| Time | Temp. | Humidity | Pressure | Rain* | Wind** | Luminosity | Snow |
|---|---|---|---|---|---|---|---|
| 1788359622 | 25.56° C | 33% | 1024.7 hPa | - | - | - | - |
| 1788358722 | 25.56° C | 33% | 1024.6 hPa | - | - | - | - |
| 1788357822 | 25.56° C | 33% | 1024.6 hPa | - | - | - | - |
| 1788356922 | 25° C | 33% | 1024.8 hPa | - | - | - | - |
| 1788356022 | 25° C | 34% | 1024.8 hPa | - | - | - | - |
| 1788355122 | 25.56° C | 33% | 1024.9 hPa | - | - | - | - |
| 1788354221 | 25° C | 34% | 1025.1 hPa | - | - | - | - |
| 1788353321 | 25° C | 34% | 1025.3 hPa | - | - | - | - |
| 1788352421 | 23.89° C | 36% | 1025.4 hPa | - | - | - | - |
| 1788351521 | 24.44° C | 36% | 1025.6 hPa | - | - | - | - |
| 1788350621 | 24.44° C | 34% | 1025.9 hPa | - | - | - | - |
| 1788349721 | 23.89° C | 35% | 1025.9 hPa | - | - | - | - |
| 1788348820 | 23.89° C | 35% | 1025.9 hPa | - | - | - | - |
| 1788347920 | 23.33° C | 37% | 1026 hPa | - | - | - | - |
| 1788347020 | 22.78° C | 39% | 1026.3 hPa | - | - | - | - |
| 1788346120 | 23.33° C | 37% | 1026.4 hPa | - | - | - | - |
| 1788345220 | 22.78° C | 36% | 1026.5 hPa | - | - | - | - |
| 1788344319 | 22.78° C | 37% | 1026.5 hPa | - | - | - | - |
| 1788343419 | 22.78° C | 37% | 1026.5 hPa | - | - | - | - |
| 1788342519 | 22.78° C | 38% | 1026.4 hPa | - | - | - | - |
| 1788341619 | 22.78° C | 39% | 1026.5 hPa | - | - | - | - |
| 1788340719 | 22.78° C | 38% | 1026.4 hPa | - | - | - | - |
| 1788339818 | 22.78° C | 37% | 1026.6 hPa | - | - | - | - |
| 1788338918 | 22.22° C | 38% | 1026.8 hPa | - | - | - | - |
| 1788338018 | 22.22° C | 38% | 1026.7 hPa | - | - | - | - |
* Rain since midnight (hover to see other rain measurements)
** Current wind speed in m/s (hover to see current wind gust speed)